Theta_e
306 306 306 306 306 306 306 306 306 306 306 306 306 306 306 306 306 305 306 308 308 307 308 308 308 308 307 308 307 307 307 307 308 308 309 310 313 313 316 318 317 316 313 321 338 341 343 346 344 345 344 342 342 344 348 350 352 352 353 352 348 348 348 348 349 349 348 350 354 356 357 356 354 356 357 355 355 355 353 354 352 352 352 353 352 350 348 347
306 306 306 306 306 306 306 306 306 306 306 306 306 306 306 306 306 305 306 308 308 308 308 308 308 309 308 308 308 308 307 308 307 310 312 312 317 317 316 318 318 315 313 328 338 338 343 344 343 344 342 340 339 343 346 349 351 351 352 350 349 351 350 349 350 350 349 349 354 356 356 355 354 356 356 353 355 355 353 354 353 353 353 352 351 349 348 347
306 306 306 306 306 306 306 306 306 306 306 306 307 306 306 306 306 305 305 307 308 308 309 308 308 309 308 307 308 308 307 308 313 320 322 321 322 321 319 318 318 315 314 328 335 335 340 341 341 342 341 340 337 340 344 347 350 350 351 351 351 351 349 350 351 351 350 350 353 356 356 355 355 356 356 355 354 354 354 353 354 355 353 351 350 349 348 347
308 307 307 307 307 307 307 307 306 306 306 307 307 307 307 306 306 305 305 306 308 308 308 308 308 309 308 307 308 308 307 313 321 324 324 323 322 322 321 319 319 314 315 329 335 335 338 340 341 340 339 338 336 339 341 344 349 349 350 351 353 352 348 351 350 351 351 349 352 354 355 355 355 355 355 355 353 352 353 355 355 354 352 351 350 349 348 348
310 310 309 309 308 307 307 307 307 307 307 307 307 307 306 306 306 305 305 306 307 308 308 308 309 308 308 308 309 307 308 317 323 320 321 321 320 321 321 321 320 314 318 332 336 334 339 341 340 338 337 335 335 337 337 343 348 349 349 350 353 351 350 351 350 350 349 349 352 354 354 354 355 355 354 355 354 352 354 355 354 354 352 351 350 349 348 347
310 311 311 311 310 309 308 308 307 307 307 307 307 307 306 306 306 305 305 306 307 307 308 308 309 308 308 309 308 308 310 316 320 318 319 318 319 322 320 322 320 316 325 335 335 335 339 339 336 335 334 330 333 334 333 342 346 347 348 350 352 351 353 353 351 351 348 348 350 353 353 355 355 354 354 354 354 353 353 355 354 354 353 351 351 349 349 348
310 310 311 311 311 311 310 309 308 308 307 307 307 307 306 306 306 305 306 306 306 307 307 308 309 308 309 309 311 313 315 315 316 316 318 317 320 322 321 322 318 320 333 336 335 337 338 336 333 333 330 327 331 330 332 341 345 346 344 348 351 350 352 352 351 350 347 347 348 350 352 353 353 352 353 354 353 354 354 355 354 354 353 352 350 349 349 349
309 309 310 310 311 311 311 311 310 309 308 308 308 307 307 306 306 305 306 306 307 307 307 308 308 309 309 310 314 318 317 316 314 316 318 318 320 322 320 321 318 324 335 335 333 335 334 333 331 329 328 326 328 329 334 339 341 342 341 346 348 348 349 350 350 348 346 346 345 348 351 351 352 351 353 352 351 354 355 355 354 354 353 352 351 350 350 349
309 309 310 310 311 311 311 311 311 309 309 308 308 308 307 306 306 306 306 306 307 307 307 308 309 310 310 311 315 318 316 314 312 316 319 318 320 320 320 320 319 326 334 332 332 333 331 331 329 328 326 325 327 329 334 335 337 341 341 344 346 346 347 346 347 347 347 346 345 347 349 349 351 351 352 351 351 354 355 355 355 354 353 352 351 351 350 350
308 309 310 311 311 311 311 312 311 310 309 309 308 308 307 306 306 306 306 306 307 307 308 308 309 310 311 312 315 318 316 312 312 317 317 318 318 318 322 323 322 328 333 331 332 331 331 329 328 327 325 325 326 327 332 332 334 339 341 342 343 344 345 345 346 346 346 346 345 346 347 349 350 350 350 350 353 355 356 355 355 355 353 353 352 351 351 350
308 308 310 310 312 312 312 312 311 310 310 309 308 307 307 307 306 307 307 307 307 308 308 308 309 310 310 312 316 317 315 311 313 316 317 319 317 317 323 325 324 330 332 331 332 330 330 328 327 326 323 325 326 326 330 330 332 336 337 338 339 340 341 343 344 346 346 345 344 345 345 347 349 349 349 351 354 355 356 356 355 355 354 354 352 351 351 351
307 307 309 310 312 312 312 312 312 311 310 309 308 308 307 307 307 307 307 307 308 308 309 310 311 311 312 315 318 317 314 312 312 314 316 318 316 318 323 325 325 330 331 330 330 330 329 328 327 326 322 322 324 324 327 327 328 331 332 333 335 338 339 341 344 344 345 344 344 345 344 344 347 348 349 351 354 355 355 356 356 355 355 354 353 352 351 351
306 307 308 310 312 313 312 312 312 311 310 310 308 308 308 307 307 307 307 308 308 309 311 313 313 313 316 320 318 316 316 313 312 314 315 316 317 318 321 324 325 328 330 329 329 329 328 327 327 325 322 322 323 324 324 326 327 327 328 328 330 334 337 342 343 344 344 343 345 345 340 341 346 347 349 352 354 355 355 356 356 356 356 354 353 353 352 352
306 307 308 310 312 313 313 313 312 311 310 310 309 308 307 307 307 307 308 308 307 311 314 314 314 315 319 321 316 314 315 314 316 316 314 315 319 320 319 322 325 327 329 328 328 329 328 327 326 324 322 322 324 324 323 324 325 325 325 326 327 328 334 343 344 343 344 343 345 343 337 340 345 347 348 352 354 354 354 356 356 356 356 355 355 354 353 353
306 307 308 310 312 313 313 313 311 310 310 310 309 308 307 307 307 308 309 307 309 313 314 313 315 318 322 320 315 314 313 314 316 316 315 315 316 321 323 324 325 325 325 326 327 328 327 325 324 324 323 322 324 323 321 323 325 325 322 322 326 327 333 343 344 344 344 343 345 342 338 342 344 345 347 351 353 353 354 356 356 355 357 355 355 354 353 352
306 307 309 311 312 313 313 312 310 309 309 309 308 307 307 307 308 309 307 307 312 315 314 315 316 320 323 317 314 315 314 314 314 313 315 316 313 320 328 326 325 322 321 325 327 326 325 324 324 324 324 322 322 322 321 320 322 325 323 319 324 325 331 340 342 345 344 343 344 342 341 345 345 344 347 351 352 352 353 354 356 355 356 357 355 355 354 353
306 307 309 311 312 313 312 311 309 309 309 308 308 307 307 308 309 310 307 307 314 315 314 315 316 320 321 315 314 315 313 312 311 312 315 316 314 320 328 325 322 321 320 323 324 325 323 323 324 323 323 323 321 322 321 318 317 322 323 322 324 326 329 334 339 344 344 342 344 343 344 344 344 345 347 350 352 352 351 353 355 356 356 357 355 355 355 354
305 307 309 311 312 312 312 310 308 308 308 309 309 308 308 309 310 310 307 308 313 316 316 314 315 321 319 314 314 312 312 312 311 313 315 316 315 321 327 324 322 321 320 322 323 324 323 323 324 322 323 323 322 321 318 318 319 319 322 321 322 326 328 333 338 341 342 342 342 343 343 344 343 344 347 349 350 351 351 353 355 356 356 357 357 355 355 354
305 307 309 311 312 311 310 309 308 308 308 309 308 308 310 311 312 311 310 310 313 316 318 314 314 317 315 312 313 311 312 312 312 314 316 315 317 324 327 323 321 321 321 321 322 324 323 323 323 322 322 321 322 321 319 321 323 321 324 323 322 324 327 333 338 339 340 342 342 343 342 345 344 343 346 348 349 350 350 352 354 356 356 357 357 356 356 355
306 307 309 311 312 311 310 308 308 308 308 308 309 311 312 313 315 315 312 311 311 312 313 312 312 313 312 312 312 311 312 313 314 315 316 316 320 326 326 323 322 321 321 321 320 323 323 322 323 322 322 322 321 322 321 323 325 326 326 325 325 323 326 332 337 337 339 339 341 343 343 345 345 342 345 348 348 349 350 352 354 355 357 357 357 356 356 355
305 307 309 311 311 310 309 308 308 308 308 308 309 312 312 312 313 314 312 311 311 310 311 311 311 311 312 311 311 311 313 314 315 314 315 318 323 327 326 323 322 320 321 322 320 322 322 322 322 323 322 323 322 322 322 322 324 325 325 325 325 324 326 330 334 335 336 337 339 342 342 343 344 341 343 346 347 348 348 351 354 355 356 357 357 357 356 356
306 308 309 310 311 309 309 308 308 309 309 309 310 311 311 310 310 310 311 312 312 311 311 311 312 312 311 311 311 311 312 314 315 315 315 318 324 326 326 323 321 321 322 322 321 320 321 320 322 323 322 322 322 322 322 321 322 323 324 324 323 324 328 329 332 334 334 335 337 341 340 339 342 341 341 343 346 349 349 350 352 356 357 357 357 357 357 357
306 308 309 310 310 309 309 309 308 309 309 309 310 310 310 308 309 309 310 312 312 313 312 311 312 312 311 311 311 311 313 315 315 315 314 317 323 325 325 324 322 322 321 320 321 319 318 320 321 323 322 321 322 322 322 322 321 322 321 320 320 325 326 324 330 334 333 334 336 339 339 338 341 340 340 341 345 349 349 348 350 355 357 357 357 357 357 357
305 307 309 310 310 310 309 309 309 310 310 310 310 309 308 308 308 309 310 312 311 313 312 311 311 311 310 310 310 312 313 313 314 315 314 315 319 320 323 326 323 322 322 320 321 320 319 321 322 322 321 321 320 321 322 320 319 320 320 318 320 325 327 325 329 332 332 331 334 336 333 334 339 339 340 341 342 346 348 348 350 353 356 356 356 357 357 357
305 307 309 310 310 310 309 310 311 310 310 311 310 309 308 308 308 308 311 313 312 312 312 311 311 311 309 310 311 312 313 313 313 314 315 315 316 317 321 325 325 323 322 321 320 320 320 321 322 321 320 321 320 320 320 319 318 317 319 319 320 326 328 329 330 329 327 326 330 332 326 328 336 339 340 340 341 344 345 347 349 353 355 356 356 357 357 357
305 307 309 310 311 311 310 312 312 310 311 312 310 309 308 308 308 308 311 314 312 312 312 311 311 310 310 310 311 312 313 314 314 314 316 315 315 317 319 322 325 324 324 322 321 319 320 322 321 320 320 320 320 319 320 320 318 315 318 321 320 324 327 329 329 327 324 324 331 331 326 326 332 337 340 340 341 342 344 347 350 354 355 356 357 357 357 357
306 308 309 310 311 311 312 312 311 310 311 311 309 309 309 308 308 308 311 313 311 312 312 311 310 310 310 310 311 312 312 313 314 314 316 316 315 316 316 319 323 323 325 324 320 319 319 320 321 321 320 319 319 319 320 320 317 316 320 321 320 320 323 327 328 326 325 327 330 331 328 325 326 333 340 341 340 341 345 348 349 352 355 357 356 356 357 357
306 309 310 311 311 311 311 310 310 311 310 309 309 309 309 308 308 309 312 313 311 311 310 310 310 309 310 310 311 312 312 312 314 315 316 315 316 316 315 317 321 321 324 323 320 321 320 320 320 321 320 320 319 319 320 320 318 318 321 321 321 321 321 324 325 325 327 327 325 327 328 324 323 331 339 341 339 341 345 346 347 350 353 356 356 356 357 357
307 309 311 311 311 311 310 310 309 311 310 309 309 309 308 308 309 311 313 312 312 310 309 310 310 309 311 311 312 312 312 313 314 314 316 316 315 316 316 317 318 319 322 323 322 322 323 321 321 321 320 320 320 321 321 320 319 321 321 322 323 321 320 320 322 323 326 325 323 325 327 324 322 326 333 336 336 339 342 343 345 348 351 355 356 355 356 357
308 310 311 312 311 311 310 311 310 310 310 310 310 309 308 309 311 313 313 313 312 310 310 310 310 310 311 312 312 312 312 313 313 315 317 317 315 316 316 316 317 318 320 322 323 323 324 324 323 322 321 321 322 322 322 321 322 321 321 322 323 322 322 320 320 321 323 323 323 325 326 325 323 325 330 333 335 339 340 340 343 346 349 353 355 355 355 357
310 311 312 311 311 310 310 312 312 310 310 311 310 309 309 311 312 313 313 311 310 310 310 310 310 310 310 310 310 311 311 313 314 315 316 317 317 317 317 316 317 317 317 319 321 322 323 324 323 324 323 322 321 322 324 323 322 322 321 321 320 320 320 319 319 320 321 321 323 325 327 325 322 325 330 335 336 338 337 339 341 344 348 352 354 354 354 356
311 311 311 311 310 310 310 311 311 311 311 310 309 310 311 312 312 312 312 310 309 310 310 309 309 310 310 310 310 310 311 312 313 313 315 316 316 316 315 316 316 316 316 316 318 320 321 322 323 324 324 324 322 322 323 322 323 322 321 320 317 317 320 319 318 318 319 320 322 325 326 324 323 328 333 336 336 336 336 338 340 342 347 350 352 353 353 355
311 311 311 310 310 310 311 311 311 311 311 310 310 311 311 312 313 312 311 310 310 310 309 309 309 309 310 311 310 309 311 311 311 312 314 315 316 315 314 314 314 315 316 317 317 317 318 321 322 322 324 324 323 321 321 321 322 322 320 319 316 317 320 320 318 318 318 318 321 324 324 322 323 328 334 335 335 336 338 338 338 341 343 345 349 353 353 354
312 312 311 310 311 311 310 310 311 311 311 310 312 312 311 312 313 312 311 310 309 309 309 308 309 309 310 310 309 309 310 310 310 311 313 314 316 317 315 314 313 314 317 317 317 316 316 318 321 321 323 324 324 323 323 322 323 322 322 321 318 317 320 320 318 317 318 318 319 321 321 319 320 326 333 333 335 336 335 336 337 337 338 341 345 349 350 352
312 312 311 311 311 310 309 309 311 311 311 311 312 312 312 313 313 311 310 309 308 309 308 308 309 309 310 310 310 309 309 310 310 310 311 313 315 316 315 314 312 313 315 316 317 317 316 317 321 322 323 324 324 324 324 323 322 323 324 321 319 319 320 320 318 318 318 317 317 318 319 322 324 330 332 332 333 334 335 335 334 335 337 338 341 345 348 351
312 312 311 312 310 309 309 309 311 311 311 312 313 312 312 312 311 310 310 309 308 309 308 309 309 309 310 310 310 310 309 309 309 310 311 312 314 315 314 312 311 311 313 315 317 318 316 318 321 322 323 324 324 324 324 324 322 323 322 319 321 323 322 319 318 319 319 318 319 318 319 323 324 327 330 330 330 331 333 334 334 335 335 337 337 340 345 349
313 312 312 312 310 309 308 309 311 311 311 313 313 312 311 310 310 310 309 309 309 308 308 309 309 309 310 310 310 310 309 310 310 309 310 311 312 313 313 312 311 310 311 313 316 318 317 317 320 321 322 323 324 325 324 324 324 323 321 321 323 324 323 321 318 318 319 318 319 318 318 320 320 322 327 328 328 330 331 331 333 333 335 336 335 337 342 345
313 312 313 311 309 309 308 309 310 311 312 313 313 312 310 310 310 310 309 309 309 308 309 309 309 309 309 309 309 309 309 309 310 310 310 311 312 313 312 312 312 311 311 312 314 316 316 316 319 320 321 322 323 324 323 325 325 323 324 325 324 320 320 321 319 319 319 318 318 317 316 317 317 320 325 327 326 328 329 329 332 333 333 335 335 338 343 342
313 314 314 311 308 308 308 309 310 311 313 314 313 311 310 310 310 310 309 309 309 309 309 309 309 309 309 309 309 309 309 309 309 310 310 310 311 312 312 311 311 311 311 311 313 315 315 316 318 319 321 322 322 322 320 321 324 324 324 326 324 322 321 321 321 320 319 318 319 317 316 317 320 323 325 327 328 328 328 328 330 331 333 334 335 338 342 343
313 315 315 310 308 308 309 310 312 312 313 313 312 311 310 310 310 310 309 309 309 309 309 309 308 309 309 309 308 309 309 309 309 309 310 310 310 311 311 310 310 310 311 311 312 314 316 317 318 320 320 320 320 321 322 321 322 323 322 323 323 323 323 322 322 321 319 319 319 319 318 317 323 327 327 328 330 329 329 330 330 332 332 333 335 337 339 342
314 316 314 310 308 309 310 312 313 313 312 312 311 311 311 310 310 310 309 309 309 309 309 309 309 309 309 309 309 309 309 308 309 309 309 309 309 310 310 310 309 309 310 311 312 314 316 317 318 318 318 318 319 321 322 322 323 323 322 322 322 322 322 321 321 321 320 319 319 320 318 320 325 329 327 327 328 328 329 330 329 332 332 331 333 336 337 342
315 316 313 309 308 309 312 312 312 313 312 311 311 310 311 311 310 310 310 310 309 309 309 309 309 309 309 309 309 309 308 308 309 309 309 309 308 309 310 309 309 309 309 310 312 314 315 316 318 318 318 319 321 321 322 321 322 322 323 324 325 324 322 320 320 321 320 319 320 320 318 322 327 330 328 328 329 327 327 329 330 330 331 331 331 333 336 342
315 314 311 309 308 310 313 313 312 312 311 310 311 310 310 311 310 310 310 310 309 309 309 309 309 309 308 309 308 308 308 308 308 308 309 309 309 309 310 309 309 310 310 310 312 314 315 316 317 318 318 319 320 320 321 321 321 321 322 325 325 325 324 322 323 323 322 320 320 320 319 322 328 330 329 329 329 329 329 329 330 330 330 331 331 332 336 341
313 313 311 309 309 311 313 313 312 311 310 310 311 310 310 310 310 310 310 310 310 309 308 308 309 309 309 309 309 308 308 308 308 309 309 309 309 310 310 309 309 309 309 310 312 314 315 317 317 318 318 318 318 319 320 321 321 321 323 325 324 325 325 325 325 325 324 322 322 321 319 322 328 331 330 329 329 328 329 329 330 330 330 331 331 335 339 344
313 314 313 310 310 311 312 312 312 311 310 310 310 309 310 310 309 310 310 310 310 309 309 309 309 309 309 309 308 308 308 308 308 309 309 308 308 310 310 309 309 310 310 310 311 312 314 316 318 318 319 318 318 319 319 320 321 321 323 323 323 324 324 324 324 323 323 324 323 322 320 324 331 333 331 331 329 328 329 330 329 329 330 330 330 334 341 346
314 315 313 312 311 311 311 311 312 311 310 310 310 309 309 309 309 310 309 310 310 310 309 309 309 309 309 309 309 309 309 309 308 309 310 309 308 309 310 310 310 310 310 310 311 311 312 313 315 317 319 319 319 320 318 317 318 320 321 322 322 323 323 324 323 322 323 324 323 324 325 325 329 332 332 331 330 329 329 329 331 332 331 330 332 336 339 341
313 312 312 312 312 312 311 311 311 311 310 310 310 309 309 309 309 309 309 309 310 309 309 309 309 309 309 309 310 309 309 310 309 309 310 310 309 310 310 310 309 309 309 310 311 311 311 311 313 315 317 317 318 318 316 315 316 317 318 320 321 321 322 323 322 324 327 325 322 326 329 326 326 331 332 330 331 331 330 333 333 333 333 333 334 337 337 337
312 311 310 310 311 311 311 311 311 311 310 310 309 309 308 308 308 309 309 309 309 309 309 309 309 308 309 309 309 310 310 311 310 310 310 310 310 310 310 310 310 310 310 310 310 310 310 310 311 312 313 314 314 314 314 314 315 315 316 318 319 320 321 322 323 325 328 326 324 329 332 329 329 331 330 332 335 335 335 336 334 333 336 338 339 338 336 334
311 311 310 310 310 310 310 310 311 310 310 310 309 308 308 308 308 308 309 309 309 309 309 309 308 308 309 310 310 310 311 311 310 310 311 310 310 310 309 310 310 310 310 310 310 310 309 310 311 311 312 313 313 313 314 314 314 315 315 317 319 320 320 321 323 324 326 326 327 330 331 331 330 331 334 337 337 336 335 336 336 338 342 344 344 342 338 335
310 310 310 311 310 310 310 310 311 310 308 309 309 308 308 308 308 308 308 308 309 309 309 308 308 308 309 309 310 310 310 310 309 310 310 310 310 310 310 310 310 310 310 309 310 310 309 310 311 311 312 313 313 314 314 314 315 315 315 316 318 319 320 321 321 323 324 325 327 329 329 329 328 334 341 341 338 336 335 338 343 347 349 350 350 347 345 347
309 309 310 311 311 310 310 310 310 310 308 308 309 308 308 308 308 308 308 309 309 309 309 308 308 308 308 309 310 310 310 310 309 310 310 310 310 310 310 309 309 309 309 309 310 309 309 309 310 310 311 312 313 314 314 314 315 315 315 316 317 318 320 320 321 324 325 326 330 329 327 328 332 338 342 342 339 336 336 341 348 352 354 355 355 354 354 355
310 309 309 311 311 310 310 310 310 310 309 308 309 309 308 309 309 309 309 309 309 309 309 309 309 309 309 310 310 309 310 310 309 309 310 310 310 310 310 310 310 309 309 309 309 309 309 309 309 309 310 311 312 313 315 315 316 316 317 317 318 319 320 320 324 332 334 332 331 330 329 333 338 338 339 341 341 343 344 347 351 354 355 356 354 356 357 357
Wind_Speed
23 23 23 22 22 22 21 21 21 20 19 19 19 18 18 18 19 19 18 15 14 15 17 18 19 18 15 14 14 13 13 12 12 13 13 9 7 9 11 10 14 19 19 20 23 23 22 19 17 16 13 11 10 11 11 9 8 6 4 5 4 2 2 4 5 4 2 5 10 12 13 10 10 11 10 9 9 11 11 8 9 8 7 9 16 27 33 34
22 22 22 22 21 21 21 20 20 20 20 20 19 19 18 18 19 19 18 16 14 15 17 19 21 20 16 13 13 13 12 11 11 11 11 9 8 9 12 13 15 21 21 24 27 27 26 23 21 18 14 11 9 10 10 10 10 8 4 4 3 2 4 4 4 4 3 3 7 11 12 9 10 12 12 11 10 12 11 10 11 11 13 15 21 29 33 34
21 21 21 21 21 20 20 19 19 19 19 20 19 19 18 17 18 18 18 17 16 16 17 19 21 21 15 12 13 12 10 11 8 5 5 6 5 6 13 18 18 21 23 24 27 26 25 24 23 20 16 11 9 10 10 10 10 10 7 5 1 2 3 3 3 3 4 3 5 10 11 10 10 12 12 10 11 13 10 11 13 14 17 20 24 29 33 34
21 21 21 20 20 20 20 19 19 18 19 19 19 19 18 17 17 17 18 17 16 16 17 19 19 18 13 11 13 11 10 7 1 4 5 6 4 4 13 22 21 21 22 21 23 22 19 19 21 19 14 11 10 10 10 11 9 8 9 5 2 2 2 3 4 5 5 3 2 9 11 10 10 11 11 10 10 10 10 13 14 16 20 23 27 30 33 34
22 22 21 21 21 20 20 19 18 18 18 18 18 18 17 17 16 16 17 17 17 16 17 17 16 14 11 11 12 11 8 3 4 5 7 5 5 5 13 23 22 22 22 21 21 20 17 18 19 16 13 10 10 10 11 14 11 6 9 8 2 2 2 4 4 5 6 4 2 8 10 9 10 11 11 11 7 2 7 13 13 18 24 26 30 31 33 33
22 22 22 22 21 20 19 19 19 18 18 18 18 17 17 17 16 16 16 16 16 16 17 16 12 10 10 11 13 10 6 2 2 7 8 4 6 6 12 22 23 24 23 21 21 20 20 21 19 16 13 11 10 11 11 16 13 7 8 10 7 6 3 3 4 2 5 3 2 5 8 9 10 10 10 11 5 3 4 13 15 19 24 28 31 32 33 34
23 22 22 22 22 21 20 19 19 19 18 18 17 17 17 17 16 15 15 16 16 16 16 14 10 8 9 12 14 10 5 3 4 6 8 7 6 4 12 21 23 25 24 23 23 23 23 23 21 17 13 10 11 12 10 13 15 10 7 7 7 8 7 6 5 4 4 2 1 2 6 9 10 9 8 9 6 3 6 13 17 20 23 27 31 31 32 33
23 23 23 22 22 21 20 20 20 19 18 18 17 17 17 17 16 16 16 16 15 15 14 12 10 9 12 12 13 10 5 3 5 3 6 6 3 0 12 21 24 26 25 25 25 24 24 23 22 17 13 10 10 11 9 9 14 14 10 7 5 7 8 8 7 6 5 3 2 3 6 8 10 8 8 10 8 5 10 15 18 21 23 26 29 30 30 31
24 23 23 23 22 21 21 21 20 20 19 18 18 17 17 17 16 16 16 15 13 13 12 11 10 10 12 10 10 8 2 2 5 3 5 7 6 4 15 20 24 26 24 25 24 24 23 22 23 17 10 10 9 10 11 9 8 11 14 12 7 7 8 7 7 7 6 4 2 4 7 7 9 9 7 12 12 10 13 17 20 22 24 26 27 29 30 31
25 25 25 24 23 22 21 21 21 20 20 19 18 17 17 16 16 17 16 15 12 11 10 11 11 11 12 10 8 5 1 4 3 4 6 5 6 4 14 18 23 25 22 24 23 24 23 20 22 16 8 9 10 9 11 11 4 3 10 13 13 12 10 9 9 9 9 7 6 6 7 6 9 9 7 12 15 14 16 18 20 22 23 25 26 28 29 30
25 25 25 25 24 23 21 21 21 20 20 20 19 18 17 17 17 16 14 13 10 9 11 13 12 11 10 8 6 4 5 5 2 4 6 3 5 2 12 17 22 23 21 22 23 24 22 17 17 14 6 5 8 9 11 13 9 4 5 8 12 14 14 14 13 12 10 7 8 9 7 7 10 9 7 11 17 17 17 19 20 21 22 23 25 27 27 28
25 26 26 25 24 22 21 20 20 20 20 20 19 18 18 18 16 13 12 9 8 11 13 12 10 9 7 5 4 6 8 5 3 3 4 4 5 1 9 16 21 22 19 20 22 23 21 16 16 16 7 2 6 7 7 13 14 11 8 9 9 10 12 14 14 14 12 7 8 8 8 8 10 12 10 11 17 18 17 19 20 20 20 22 24 25 26 26
25 26 26 26 25 23 21 19 19 19 19 20 20 19 18 17 14 11 8 5 9 12 10 9 8 5 3 1 1 5 6 2 1 2 3 4 4 2 8 14 20 20 16 18 19 20 20 14 16 19 9 4 6 3 2 8 12 12 10 9 9 8 10 14 16 15 13 9 9 9 7 7 9 13 13 14 17 18 18 19 20 20 20 21 23 24 25 26
26 27 27 27 26 24 22 19 19 18 19 19 19 19 18 15 12 10 6 6 11 9 8 9 6 6 3 1 3 8 8 3 2 3 4 2 2 2 7 12 18 19 15 15 15 17 17 13 14 17 13 9 6 2 5 6 8 10 9 8 8 7 8 14 17 16 14 11 13 11 6 5 10 14 15 17 20 19 18 19 20 20 20 21 23 24 25 27
27 27 28 27 26 25 22 19 18 18 19 19 19 20 17 13 10 8 6 10 8 4 9 9 6 6 1 1 3 9 10 7 4 5 4 2 1 2 6 10 16 19 14 12 12 15 15 12 13 15 14 12 8 5 8 7 6 8 8 8 9 8 7 11 15 16 14 12 15 13 6 5 8 12 16 19 22 21 18 19 20 21 21 22 23 24 24 26
27 27 28 28 26 25 21 19 18 18 20 20 20 20 15 12 9 7 11 12 3 4 11 9 6 3 1 3 7 10 12 11 9 6 5 4 3 3 7 10 14 17 15 12 10 12 13 12 14 14 12 11 9 7 7 7 7 8 9 9 10 11 9 9 12 17 16 11 14 15 7 4 3 9 17 22 22 22 18 19 21 22 22 23 23 23 24 25
27 27 28 28 26 24 19 18 17 19 20 20 22 18 14 12 5 7 14 9 2 3 9 11 4 3 1 8 9 11 14 14 10 5 7 6 4 6 10 12 14 15 15 13 11 12 13 14 13 11 11 9 8 8 7 9 9 8 9 9 11 13 11 9 11 15 17 12 12 15 10 6 6 9 15 21 22 21 19 19 22 22 23 23 23 23 24 26
27 27 28 28 26 22 17 16 16 18 20 21 23 16 12 10 3 8 16 10 5 1 3 11 6 3 1 9 12 13 15 12 5 2 7 6 5 9 12 13 14 16 16 14 14 15 15 15 12 9 9 10 9 10 10 10 11 11 10 9 11 12 12 12 9 10 16 15 12 14 12 11 9 9 13 19 19 20 19 19 22 23 23 23 23 24 24 26
27 27 28 27 24 19 16 15 16 18 19 21 23 14 11 11 1 5 15 10 7 3 0 7 7 1 3 10 14 13 11 10 6 4 3 5 8 12 11 11 16 19 17 13 14 18 15 12 12 10 10 13 14 14 13 10 8 10 11 11 12 11 11 13 9 7 11 15 14 15 12 11 12 12 16 18 17 19 18 18 20 21 22 23 23 24 25 26
27 26 27 26 22 17 14 14 15 17 19 21 21 13 10 13 3 2 11 7 5 6 3 5 6 5 6 9 12 11 9 10 8 6 3 6 11 14 11 12 17 16 13 11 12 18 16 11 11 13 14 16 17 17 16 11 5 7 9 10 13 12 11 14 13 8 8 10 13 15 14 13 16 15 14 15 16 17 17 17 19 21 22 23 24 24 25 26
26 25 26 24 20 15 12 12 14 16 18 19 19 11 9 12 6 4 11 5 4 6 3 4 5 6 7 8 12 12 7 5 9 8 4 7 11 13 12 14 14 11 12 12 12 15 15 12 14 16 16 15 15 16 16 14 10 7 8 7 11 12 10 13 13 8 7 9 10 13 15 14 15 14 11 13 14 15 17 18 19 22 23 23 25 25 25 24
25 24 25 23 17 13 11 10 12 15 17 16 15 11 8 11 9 7 8 4 2 5 5 5 5 7 8 6 11 13 4 1 7 9 5 4 11 11 11 13 12 9 12 13 10 12 12 13 16 17 15 13 13 15 16 16 13 10 8 7 8 9 9 10 9 6 6 8 9 11 12 12 14 14 13 13 13 14 17 19 20 22 23 23 24 24 25 24
23 23 24 23 17 11 11 10 10 14 14 12 11 10 10 12 13 9 6 6 4 1 3 5 4 8 9 5 10 12 2 1 5 6 6 1 9 10 8 12 12 10 13 14 12 11 10 12 17 16 14 14 13 12 15 14 11 10 9 8 8 8 10 10 9 9 9 8 10 12 11 10 12 14 15 15 15 16 17 19 20 22 24 23 23 24 25 26
22 23 23 24 19 11 11 10 9 12 13 10 9 13 14 14 15 9 4 6 3 3 0 4 4 8 11 9 12 10 2 2 4 5 6 2 4 5 8 12 12 10 12 16 16 14 10 9 13 16 15 15 14 12 13 12 9 12 13 11 9 9 10 9 5 7 9 10 12 12 9 8 11 14 14 14 15 16 16 18 20 21 22 21 21 22 24 26
22 23 23 24 21 14 10 6 6 11 11 6 8 16 16 15 15 7 4 6 2 4 2 2 3 7 11 10 11 8 2 1 4 5 6 4 3 4 8 10 11 10 12 17 16 14 13 7 8 15 15 14 15 13 14 12 8 11 14 15 13 10 10 10 6 5 7 10 13 13 11 8 12 16 15 12 13 15 15 16 19 20 20 20 21 23 25 26
21 23 23 24 22 17 8 2 5 10 7 2 9 17 15 16 14 3 3 5 3 4 3 1 2 6 9 9 12 7 5 2 5 4 6 4 5 5 6 7 9 10 10 14 11 9 11 10 9 13 15 16 17 13 14 14 10 8 10 14 17 14 11 10 9 8 7 7 10 13 12 9 10 16 17 15 14 15 15 15 17 20 20 22 23 23 25 27
21 23 23 23 22 17 7 3 8 9 6 5 12 17 15 15 9 2 4 6 3 2 1 2 2 7 10 9 13 7 3 6 5 1 7 6 3 5 7 7 8 9 8 8 8 7 11 14 12 14 15 15 14 12 13 15 11 8 7 10 16 18 15 12 10 9 8 8 6 10 11 10 9 12 15 17 18 17 16 15 15 18 22 23 24 24 26 28
21 22 23 22 20 14 6 5 7 6 6 9 13 16 15 10 1 5 4 5 2 2 2 3 3 8 10 6 9 6 3 9 6 3 9 7 3 5 10 10 8 10 10 9 8 7 12 16 14 14 14 12 11 12 14 16 13 10 6 5 11 16 18 16 11 9 8 9 9 10 12 10 9 10 11 14 17 17 17 17 15 18 22 24 24 25 26 27
22 22 22 21 17 11 6 5 5 5 8 10 13 16 12 3 4 4 5 4 2 3 2 3 2 7 10 4 5 7 4 6 6 8 9 4 2 4 8 8 9 11 12 14 12 7 9 14 16 14 12 11 10 10 12 15 13 11 8 5 8 12 15 16 12 9 9 10 12 13 13 10 9 11 11 11 13 15 15 15 14 18 22 24 24 24 24 25
22 22 21 18 12 9 8 5 5 8 9 10 14 14 5 3 4 5 5 2 2 3 2 5 3 5 10 3 4 6 5 6 8 9 5 0 1 4 6 7 8 10 10 14 14 13 9 10 12 13 12 12 12 11 11 13 13 12 11 9 9 9 10 11 11 9 10 12 14 16 16 13 11 10 11 12 11 13 14 13 13 17 20 22 23 23 23 25
22 22 20 14 8 8 8 4 6 10 8 10 14 8 2 4 4 6 2 1 1 2 2 4 5 4 8 6 4 7 5 5 8 8 4 1 0 1 3 5 6 7 9 10 11 15 15 11 8 10 13 14 13 12 11 12 13 12 10 9 8 8 8 8 9 10 11 12 13 16 18 16 13 10 10 11 12 14 15 14 14 15 18 21 21 22 23 26
22 20 16 10 7 8 9 8 9 8 6 9 10 2 5 4 5 4 1 2 1 2 2 4 6 5 5 4 6 7 4 5 8 7 5 3 1 3 4 3 2 5 7 8 10 12 14 14 11 10 13 15 13 11 10 11 12 11 10 9 9 8 8 8 9 10 11 11 11 15 17 16 15 12 11 13 12 13 14 15 15 15 17 20 21 22 23 24
21 19 12 7 8 11 13 13 12 8 5 8 6 5 6 5 3 0 3 1 0 4 4 3 4 5 4 2 6 7 2 4 8 7 4 3 1 3 5 8 8 6 4 5 8 9 10 13 16 14 11 14 15 11 9 10 11 12 11 10 10 9 8 10 10 9 10 11 12 15 15 14 13 13 15 16 13 11 12 14 15 15 15 17 18 21 21 22
20 16 7 4 11 15 15 14 10 6 4 5 5 6 6 5 0 2 2 4 4 2 3 3 3 3 3 3 6 7 2 4 7 7 4 3 2 2 3 7 10 7 6 6 7 8 9 9 14 16 12 14 18 14 11 10 10 12 12 10 11 9 8 8 8 9 10 9 13 16 13 11 10 8 10 16 17 17 15 13 13 13 14 14 15 18 20 21
19 12 4 7 15 16 14 12 7 4 3 5 6 6 5 3 2 2 1 4 3 1 2 2 4 3 2 4 5 6 4 4 6 6 4 2 2 2 3 6 10 9 6 6 5 6 11 7 4 9 10 13 18 16 14 12 9 10 11 11 12 10 8 7 6 8 8 8 10 13 9 7 6 4 4 9 14 19 20 20 20 18 17 17 15 17 19 21
17 8 3 11 17 13 10 9 4 3 3 6 6 4 1 3 4 3 3 3 2 3 3 2 1 2 1 2 2 5 4 4 5 4 2 1 2 3 4 5 7 9 6 5 4 3 9 6 5 3 7 12 15 16 16 14 9 8 11 12 11 11 10 8 8 8 8 9 8 9 9 8 7 7 8 10 11 13 17 19 21 23 23 22 20 19 19 21
16 5 2 13 18 10 7 6 1 4 5 7 4 0 2 4 5 4 3 3 1 3 5 3 2 3 3 2 2 6 7 4 3 3 1 1 1 4 5 4 6 8 8 6 4 2 4 6 1 3 11 10 7 10 14 16 13 8 10 12 10 11 11 8 8 8 9 10 7 8 12 11 9 8 10 16 17 15 15 14 16 20 22 23 23 23 23 22
14 3 2 14 17 8 5 4 3 4 6 5 2 4 3 3 5 5 3 2 1 2 4 2 2 2 3 4 3 6 7 5 4 4 3 1 1 4 4 3 5 7 9 8 5 2 4 8 6 7 11 8 6 10 12 15 18 15 9 10 11 11 11 9 8 8 10 10 8 10 13 12 10 7 7 14 19 19 18 16 16 18 19 20 21 23 25 25
12 2 2 16 15 5 6 6 4 4 6 3 4 4 3 4 6 5 2 1 1 3 2 1 2 1 1 5 5 4 4 5 6 5 2 1 1 5 5 4 5 7 10 8 6 4 4 7 6 8 9 6 7 11 10 11 17 17 13 10 12 10 9 9 8 8 9 9 8 10 11 9 9 9 8 9 13 17 18 16 15 17 19 20 20 22 24 25
10 1 3 16 12 4 7 6 2 2 2 2 3 4 4 4 5 5 3 1 1 2 3 1 1 2 2 4 5 2 3 5 5 4 2 2 1 3 6 5 7 9 11 8 6 5 4 5 6 7 8 6 8 11 13 13 13 14 13 12 11 11 10 10 9 9 9 8 7 7 8 7 5 8 11 9 8 10 13 13 13 15 18 20 20 21 22 23
9 2 6 16 8 5 6 4 3 2 3 4 4 5 4 2 4 5 4 3 1 1 3 3 2 3 4 4 4 3 4 6 5 4 4 1 1 1 5 7 9 9 9 7 6 3 3 5 8 8 7 9 11 9 10 12 9 9 13 14 14 12 11 10 10 11 10 9 8 6 7 5 3 4 8 9 9 9 11 12 12 14 18 20 20 21 21 22
9 2 9 15 7 6 3 4 5 4 3 4 5 6 4 2 2 3 4 3 1 1 2 2 2 4 4 4 6 5 6 7 5 5 4 1 2 2 6 9 9 8 7 6 5 4 5 5 7 9 8 11 12 7 6 8 8 9 9 12 15 15 13 12 11 10 10 11 10 8 8 5 3 4 4 5 7 9 11 12 12 15 18 19 21 22 22 23
7 6 12 14 7 3 3 4 6 4 5 5 4 5 4 3 3 3 3 3 2 1 2 2 2 4 3 4 6 7 6 6 5 5 5 3 3 3 6 7 8 8 6 4 3 5 5 5 8 9 9 12 16 14 9 7 7 9 9 9 11 13 12 10 7 5 7 11 10 8 8 7 3 3 3 3 4 6 8 9 10 12 14 15 17 18 21 24
5 5 12 15 7 1 2 3 5 4 6 5 5 5 5 5 6 4 4 4 3 2 3 2 2 4 3 4 6 7 6 4 4 3 4 5 1 3 4 6 5 6 6 4 4 7 5 5 7 8 8 9 12 13 11 8 7 10 13 9 8 9 8 7 5 4 5 10 11 10 8 6 4 5 6 7 9 10 9 9 10 10 11 12 11 9 11 17
4 2 8 15 15 11 8 6 4 5 6 5 6 5 3 4 5 5 4 5 4 3 3 1 2 4 4 5 6 5 5 5 4 2 3 5 3 1 2 3 5 7 6 7 8 8 6 5 5 7 9 9 8 8 7 6 6 11 12 9 7 9 9 8 8 8 8 10 11 10 8 5 4 6 6 7 9 10 10 10 10 10 10 11 10 7 7 10
5 3 5 8 13 15 13 9 7 5 4 3 4 4 3 2 4 3 3 3 4 4 3 1 3 4 4 5 6 5 5 5 4 4 4 6 5 2 1 3 6 8 7 8 10 8 6 7 8 10 12 10 7 6 7 7 7 9 10 9 9 8 8 8 10 12 10 9 11 11 10 9 5 5 5 4 6 8 9 9 8 7 8 7 6 6 8 10
4 4 5 3 5 10 10 10 10 6 3 2 1 2 4 3 2 2 1 2 3 3 3 1 3 4 4 5 6 5 5 6 6 6 7 7 6 5 5 7 9 7 5 7 8 6 5 8 11 14 16 17 15 14 12 10 10 10 8 8 8 7 8 11 14 15 10 8 12 13 11 13 10 6 3 1 3 5 5 5 4 3 3 2 1 2 5 7
5 4 6 4 2 5 6 7 8 7 5 4 2 2 3 3 3 2 1 1 2 3 3 2 1 3 4 5 5 5 5 6 6 6 6 6 7 7 7 9 8 6 5 7 7 5 6 8 11 13 17 19 18 16 14 12 11 12 12 11 9 8 10 12 15 16 11 8 9 8 7 10 11 9 7 6 8 9 9 10 11 9 7 6 5 5 6 6
7 6 6 5 2 5 6 4 5 7 7 5 3 4 4 4 4 3 2 3 3 1 3 4 3 4 4 4 5 5 5 6 6 5 6 7 8 8 7 7 5 3 4 6 6 6 6 7 10 12 14 18 19 17 15 14 13 14 14 14 13 11 12 12 13 14 13 11 10 8 9 10 9 7 9 11 14 16 15 15 14 11 9 10 9 9 9 8
7 5 5 5 6 7 6 5 5 5 6 4 3 4 4 3 4 4 3 4 4 2 3 6 5 5 5 4 5 6 5 6 8 8 8 8 8 7 6 5 4 4 5 5 4 5 6 6 9 10 10 14 18 17 16 15 15 15 16 16 15 14 13 13 12 12 13 13 11 10 11 12 10 7 10 12 15 16 16 16 14 11 11 12 12 13 12 11
7 6 2 2 4 3 3 5 4 2 4 5 4 4 3 3 5 4 3 3 4 4 4 6 6 6 6 4 5 6 6 7 10 11 12 12 11 10 8 7 7 7 6 6 5 6 6 7 9 9 8 11 14 15 16 15 15 17 18 17 17 15 12 12 11 11 13 13 12 12 12 10 8 8 10 10 12 14 14 14 13 12 13 14 15 16 15 15
6 6 4 2 2 2 2 3 2 2 3 5 5 4 4 4 4 5 3 0 3 4 4 6 8 7 6 5 5 6 8 10 13 15 16 16 17 17 15 15 15 12 9 8 7 7 7 7 7 7 8 9 12 14 14 12 13 14 14 16 18 16 13 13 11 6 6 9 10 10 7 3 5 9 9 9 10 11 12 12 13 14 14 15 16 17 18 19
Wind_Direction
6 3 0 359 357 356 355 355 354 352 349 349 348 345 344 343 344 347 352 355 354 351 349 347 344 339 335 329 324 318 312 309 302 289 280 278 276 241 217 215 205 197 193 176 172 173 167 174 178 175 179 184 202 200 194 203 211 220 234 245 249 233 88 58 48 42 56 131 139 160 177 174 157 162 156 157 161 149 150 141 133 132 109 115 136 145 151 156
6 3 0 357 355 354 353 353 352 350 347 347 348 347 345 343 342 343 346 347 347 345 343 343 341 338 332 326 328 326 321 318 313 303 287 265 263 252 213 199 198 198 188 173 179 178 171 177 175 175 181 184 193 188 189 192 200 214 232 246 244 68 75 58 41 33 6 101 139 170 182 184 166 161 168 173 164 157 155 147 142 128 117 124 139 147 151 156
6 2 359 356 355 353 352 352 350 349 346 345 346 345 344 343 340 340 340 340 343 343 342 342 340 338 332 325 331 334 332 324 329 351 310 260 251 253 211 195 190 196 192 183 185 183 179 180 174 175 183 192 192 184 195 190 195 215 231 247 212 85 95 76 39 40 27 49 162 176 182 191 169 161 179 182 165 169 174 160 156 145 134 137 147 152 154 159
7 3 359 356 355 353 352 351 349 349 346 344 344 343 343 341 339 337 335 336 339 342 341 341 342 342 340 335 337 344 336 314 64 47 317 268 269 264 206 195 187 188 192 187 186 185 185 179 174 180 187 200 194 190 205 189 189 207 220 249 59 123 169 107 77 64 47 17 194 176 182 190 173 170 185 187 175 182 186 173 169 157 146 147 154 158 159 162
7 3 360 356 355 354 352 350 349 348 346 344 342 341 340 337 338 334 332 333 336 340 337 339 346 349 356 351 346 352 333 276 118 13 314 260 280 282 206 197 187 179 183 184 184 185 184 178 178 187 200 209 188 193 212 198 206 222 219 243 262 200 168 118 120 55 31 21 118 174 187 184 175 183 193 193 181 181 186 176 171 159 151 153 159 162 164 166
4 2 360 357 355 354 352 350 349 348 346 342 339 339 336 335 335 331 329 330 334 338 333 339 347 349 6 3 357 0 331 291 41 337 320 286 288 283 207 197 184 173 177 181 180 182 182 181 184 193 207 218 197 202 215 202 214 240 221 229 238 233 232 174 185 5 3 21 92 175 188 181 184 191 197 203 182 52 155 164 160 158 156 156 160 165 167 169
0 360 359 357 355 353 353 352 350 348 345 339 338 337 332 332 332 329 328 329 334 333 329 337 338 329 341 351 357 352 304 293 307 303 322 306 292 286 199 194 182 172 175 180 179 181 180 182 190 197 206 217 209 211 212 199 211 237 245 232 233 238 234 220 227 285 313 314 326 191 187 189 200 192 175 204 211 96 124 148 153 154 155 158 161 167 170 170
359 358 358 357 354 352 352 352 351 348 344 338 337 335 332 330 329 327 326 330 333 328 327 333 333 321 318 336 345 323 266 260 268 269 345 339 338 142 185 188 182 175 178 183 181 182 183 186 193 196 206 216 212 210 203 200 213 228 248 254 245 243 236 232 240 257 269 274 277 213 202 199 206 201 167 191 213 168 138 142 150 152 155 161 164 168 171 172
358 359 359 357 353 351 351 351 350 347 344 339 337 336 333 329 327 326 326 330 330 324 327 335 340 331 324 339 330 303 247 286 268 241 359 17 42 146 179 185 184 178 183 189 186 187 186 192 196 196 214 221 211 208 202 208 216 220 238 250 253 248 238 235 234 237 249 249 243 217 211 201 201 212 193 190 196 173 153 148 152 155 158 164 168 170 171 173
358 358 358 357 352 349 350 349 348 346 343 341 339 338 333 329 326 325 326 328 324 325 336 341 340 331 332 338 312 286 292 298 271 263 299 357 33 143 178 187 187 183 186 190 191 192 191 196 197 199 236 234 213 211 204 211 225 208 238 251 254 257 250 243 242 239 245 243 238 229 214 196 188 203 204 182 181 170 159 156 157 161 164 167 170 172 173 175
355 355 356 356 352 348 349 348 347 345 343 342 340 338 333 329 325 325 327 324 323 336 343 339 334 330 335 329 294 287 299 287 261 287 285 314 4 123 182 192 189 188 190 192 194 195 196 200 195 196 231 232 207 215 215 223 245 255 260 265 251 252 250 242 243 237 237 235 221 223 226 203 183 201 216 170 168 170 165 162 163 166 168 170 172 172 175 177
352 353 353 356 353 350 349 348 347 345 344 342 340 338 333 329 328 329 329 323 335 346 345 341 335 338 342 314 273 293 298 285 269 297 310 316 333 173 191 199 193 192 195 196 197 197 200 202 198 200 208 215 201 212 227 226 240 254 259 272 258 248 243 229 226 222 220 216 194 207 228 209 190 205 209 169 165 172 171 166 166 171 171 171 173 173 176 178
351 352 353 355 354 351 350 348 347 345 345 343 340 338 334 332 333 336 335 336 349 350 354 348 342 7 10 283 6 2 344 304 259 350 349 321 323 256 198 198 196 197 202 204 202 199 201 201 203 208 217 240 215 208 292 222 226 244 244 259 264 253 238 216 211 208 208 208 186 202 225 201 199 208 196 171 171 176 174 172 172 173 173 174 175 175 179 180
352 354 354 354 353 351 349 347 346 346 346 344 342 339 336 337 341 348 354 347 346 357 11 356 9 75 81 178 41 19 17 38 76 14 339 324 350 281 199 190 194 196 202 210 209 202 201 204 207 216 224 237 250 270 263 222 209 230 231 238 247 250 231 201 199 200 200 197 189 208 236 196 188 194 191 177 176 180 178 177 176 175 175 176 178 178 180 182
352 355 354 353 352 350 348 345 344 346 346 346 346 343 340 344 352 6 9 351 347 35 24 14 70 91 119 163 7 354 6 10 336 307 290 208 134 242 193 185 189 193 198 200 204 200 198 201 205 217 220 223 254 256 228 220 205 214 220 224 223 235 228 188 188 197 200 189 187 207 239 224 177 167 185 185 180 185 185 182 180 179 180 178 180 181 182 185
353 355 354 353 351 350 348 343 344 347 347 349 350 347 348 352 1 24 11 359 13 86 28 23 78 98 261 39 17 359 359 343 313 278 240 204 176 174 178 173 175 188 196 192 192 193 194 200 204 216 218 210 225 231 223 218 212 208 215 223 214 217 220 191 185 194 203 193 189 208 227 240 180 156 185 188 184 190 188 187 186 182 183 181 182 183 183 186
354 355 355 352 351 352 348 343 345 348 349 352 355 353 354 354 17 37 12 13 94 90 34 26 39 180 37 22 10 351 344 330 316 266 210 197 177 167 162 158 164 175 183 187 190 188 191 199 203 213 220 217 214 216 221 212 206 201 207 225 220 216 220 203 185 188 202 207 199 210 217 215 187 153 185 192 185 192 192 190 190 185 184 183 184 186 186 186
354 356 355 353 353 354 348 345 347 351 353 356 358 357 0 7 71 38 15 25 38 1 53 26 8 209 100 19 358 340 339 341 346 184 186 186 168 166 163 158 160 163 166 178 188 189 189 195 201 208 211 217 213 208 213 211 209 202 196 216 221 218 223 213 190 177 199 212 209 211 212 220 212 158 187 204 190 193 198 193 192 189 186 184 185 188 188 189
353 355 356 354 355 355 348 348 349 354 358 359 0 2 17 20 62 27 15 16 6 332 177 15 3 316 355 360 351 345 0 26 56 84 141 173 158 157 163 161 161 165 168 173 184 188 188 192 202 209 207 206 207 207 213 216 220 218 207 213 218 216 222 218 200 164 194 215 219 220 211 213 228 199 190 202 195 197 202 196 194 191 188 186 187 190 191 192
351 353 356 356 357 354 346 347 351 358 359 2 6 13 21 6 323 17 9 1 6 6 3 0 360 358 352 349 350 357 26 49 65 61 81 150 155 157 158 162 167 177 185 176 175 185 190 199 205 209 210 206 206 209 219 226 236 248 230 216 220 221 218 215 210 182 192 223 222 225 224 208 220 220 195 192 196 201 203 199 195 193 191 189 190 193 192 194
348 351 355 358 358 351 343 345 353 1 359 4 18 36 37 7 358 355 344 342 40 30 34 14 1 353 348 346 356 10 28 52 63 61 82 138 162 168 158 165 175 186 198 184 169 179 193 212 213 211 214 211 209 210 219 229 229 243 246 224 221 225 220 217 213 192 197 232 229 224 234 226 222 230 213 195 198 203 204 201 198 195 194 193 194 194 192 192
346 348 352 358 359 347 337 339 352 359 360 12 29 46 46 15 7 346 324 301 347 27 48 22 4 1 352 340 359 12 8 4 60 64 63 141 193 197 171 179 193 190 192 188 174 180 199 221 219 211 213 215 215 212 214 225 230 234 241 233 225 221 223 223 209 194 206 230 236 226 233 238 228 232 232 213 205 207 208 206 202 198 196 196 196 193 191 189
343 345 348 355 358 346 330 326 340 351 359 17 27 23 15 0 354 346 310 276 274 96 49 12 8 8 5 360 359 4 357 1 43 52 38 144 212 220 199 193 205 199 191 193 192 192 203 219 218 210 207 212 214 210 208 215 226 231 232 235 233 218 221 227 202 200 221 232 242 241 239 240 228 225 231 224 212 208 210 212 208 203 201 199 197 194 191 189
342 342 344 350 356 352 332 323 330 343 355 10 8 0 356 349 347 345 284 268 259 166 47 19 34 9 8 7 357 358 27 40 14 20 16 318 218 220 223 210 210 210 200 201 206 212 216 214 214 210 204 206 205 200 204 212 221 227 230 234 234 222 224 238 212 195 221 231 239 248 250 244 231 223 222 219 214 212 212 212 209 207 205 203 199 197 195 193
340 340 342 345 351 353 343 336 337 343 353 8 355 348 345 341 340 337 255 256 222 163 193 36 31 5 7 2 356 346 266 67 20 11 8 316 265 232 227 218 217 219 203 203 214 223 224 213 198 201 197 199 207 207 208 214 223 224 225 229 236 237 230 236 245 221 222 224 220 226 241 243 228 226 225 216 210 212 211 208 207 205 202 200 200 198 197 197
339 339 341 341 345 352 2 354 327 344 1 0 339 341 338 334 331 319 234 250 192 145 165 77 14 15 12 358 352 324 222 81 29 0 360 326 255 245 239 216 216 230 215 204 217 231 226 211 183 190 195 199 212 218 210 211 227 230 214 219 229 240 241 236 240 233 234 236 206 204 232 248 226 223 224 219 215 210 206 205 204 201 198 199 201 199 198 198
340 338 340 341 339 346 1 288 315 351 8 325 334 341 335 327 320 188 220 244 184 112 87 39 21 23 14 353 348 323 228 355 349 38 7 336 252 236 243 223 207 229 229 206 217 221 218 212 187 191 205 203 211 218 206 204 221 233 209 210 222 230 236 238 243 239 242 258 220 192 225 249 239 225 219 217 217 211 205 204 201 199 199 201 202 201 199 198
340 337 340 339 333 339 342 303 323 355 345 332 340 341 334 330 308 170 241 249 129 82 58 34 20 14 360 342 2 12 13 344 321 35 4 323 262 229 235 240 234 228 213 207 223 194 198 217 204 197 211 209 210 215 208 206 219 231 222 221 224 226 231 234 243 247 244 255 243 209 215 236 243 232 222 220 218 212 209 209 204 200 201 202 204 204 202 199
340 338 338 336 332 334 322 307 315 317 328 338 342 338 337 0 150 189 262 253 109 92 49 9 10 3 344 315 44 34 25 2 340 344 344 313 294 253 243 271 271 248 218 214 233 208 189 218 214 205 214 216 213 211 211 211 219 230 225 225 231 227 230 230 235 246 245 248 245 225 214 227 244 230 219 219 216 212 212 213 208 204 203 202 203 206 202 198
340 337 338 339 339 333 327 335 309 306 328 335 337 342 346 134 180 229 241 223 90 86 48 10 359 342 341 340 69 31 23 27 359 337 328 318 307 250 258 283 269 262 238 217 232 240 227 216 213 214 219 225 223 215 218 217 219 229 223 218 225 222 224 226 227 237 243 241 239 233 225 231 247 234 219 216 212 214 217 213 208 207 204 201 203 205 201 197
340 337 339 344 346 333 333 330 289 304 327 333 338 346 180 170 238 250 241 151 64 94 128 40 29 354 357 11 34 18 17 30 10 354 355 4 302 236 287 260 225 246 243 222 226 236 235 223 212 215 215 224 231 221 219 215 215 227 221 212 219 213 208 217 218 221 235 239 233 233 232 234 242 235 223 219 208 212 222 217 208 205 203 199 201 204 201 199
340 338 339 344 347 340 326 305 299 308 330 339 339 290 203 220 234 241 61 164 208 54 77 34 25 13 0 13 27 14 2 23 14 3 2 345 12 46 15 4 316 250 230 226 218 215 229 229 220 215 208 214 224 219 213 209 212 220 212 207 213 205 195 205 210 212 229 237 228 229 230 232 242 241 232 231 218 210 220 221 213 206 203 201 199 201 201 199
341 337 337 347 343 333 317 307 309 307 327 342 318 225 225 253 234 80 42 95 35 42 44 13 13 10 348 347 24 12 357 34 10 351 353 324 304 81 70 39 1 296 255 260 235 211 220 223 218 219 208 204 213 215 208 203 205 211 205 204 209 201 195 204 209 215 230 233 222 224 232 236 243 242 232 232 231 221 216 216 214 211 211 208 201 200 200 197
342 336 331 344 340 330 318 312 306 286 311 332 277 223 229 248 178 69 50 62 65 78 60 16 339 358 31 48 30 13 9 55 19 344 333 291 259 113 86 42 16 330 296 286 257 230 230 222 210 212 202 197 208 218 222 213 205 207 207 211 216 213 209 209 210 214 226 233 216 211 224 238 238 238 230 227 228 226 221 214 213 216 217 214 206 202 200 197
345 342 344 356 347 336 327 323 306 256 275 295 255 227 236 247 70 75 65 57 65 93 62 5 302 290 95 80 55 44 24 23 18 341 315 323 335 18 26 23 19 0 316 272 267 250 247 247 181 197 201 196 204 213 221 224 214 200 203 215 218 219 225 231 236 233 236 245 222 204 211 233 236 232 220 222 225 223 224 225 225 224 220 217 215 209 202 199
352 357 31 2 350 337 332 333 305 217 241 266 246 226 255 35 33 24 28 17 0 1 325 239 309 319 58 64 56 61 26 337 354 335 290 49 11 31 38 31 22 11 354 303 296 283 248 239 88 122 202 201 211 213 209 219 225 193 197 216 218 220 231 239 244 245 249 249 230 206 213 222 235 237 215 218 229 222 221 225 226 225 221 220 222 216 207 202
357 14 70 354 346 341 348 341 264 184 230 257 253 142 64 54 29 21 30 359 353 355 309 270 56 354 338 349 11 27 358 320 350 345 310 146 99 47 34 42 36 13 4 339 302 344 293 269 335 216 211 198 214 224 211 220 235 221 201 204 208 222 231 237 241 228 227 239 227 211 221 218 220 231 213 214 224 224 221 221 220 221 221 221 223 217 210 207
2 54 84 353 347 354 21 30 133 179 235 246 121 79 63 74 49 41 43 6 326 313 300 314 34 2 329 333 352 12 345 329 6 346 312 245 122 55 25 18 30 6 356 338 289 340 324 279 263 229 218 195 185 217 222 221 229 243 244 207 197 215 219 215 231 227 221 234 230 220 229 228 221 222 207 211 219 222 222 221 220 220 219 219 219 213 210 209
8 90 33 355 350 11 56 71 112 215 237 214 118 103 79 85 69 52 51 52 285 297 314 13 4 325 24 343 338 0 351 341 345 330 321 328 86 65 40 359 354 350 346 329 294 307 305 271 251 207 204 204 195 208 221 214 214 233 256 238 211 216 218 210 220 232 232 238 235 222 225 229 226 226 225 218 215 218 220 219 220 221 221 218 213 211 211 208
4 257 12 359 355 51 65 71 92 240 208 81 85 108 102 96 76 60 51 16 291 307 336 26 318 299 15 342 307 332 357 328 318 309 308 341 14 80 58 14 345 341 336 313 279 284 276 260 257 212 191 215 221 212 220 219 208 213 226 230 221 215 215 217 221 226 232 241 239 227 226 226 214 217 225 220 208 214 219 222 222 219 220 217 211 212 212 207
357 284 14 1 11 88 67 68 68 68 109 84 84 95 85 66 56 66 62 18 1 13 343 333 324 318 329 318 298 333 327 295 295 294 279 281 241 110 64 25 346 338 332 298 257 271 283 258 256 242 220 221 217 212 230 239 241 231 218 216 221 221 214 219 225 220 225 238 239 237 240 232 165 177 210 214 215 221 222 225 229 224 222 221 216 216 212 206
359 356 359 359 46 94 47 88 80 59 89 85 82 79 61 40 34 47 54 22 16 57 338 308 324 316 312 315 312 319 303 287 287 280 271 273 283 327 39 18 341 330 328 295 276 328 329 283 256 249 252 254 250 263 290 284 285 277 244 221 220 220 216 221 226 220 222 230 233 243 249 235 131 127 174 198 214 227 227 229 234 231 228 226 222 219 213 206
10 23 358 3 65 94 342 99 99 71 86 91 93 80 61 52 40 35 41 7 332 318 295 287 319 304 306 323 305 299 298 291 283 276 276 277 282 356 12 354 337 327 319 296 305 353 331 260 246 247 254 268 271 273 274 273 273 259 243 232 227 225 226 233 244 252 238 225 219 226 238 234 201 179 207 229 237 243 240 240 244 240 238 236 230 223 215 208
9 30 12 13 43 61 338 76 93 87 94 103 107 94 80 60 36 26 35 21 0 310 283 302 320 298 314 323 297 300 310 295 280 281 284 281 301 36 343 325 336 330 330 346 347 345 321 253 247 248 240 237 245 244 233 227 240 237 229 227 232 240 250 256 260 270 253 238 230 225 226 228 214 200 214 234 245 250 247 244 244 242 243 246 246 238 218 208
331 45 38 28 38 58 60 50 57 94 104 101 91 78 86 83 47 20 22 33 21 335 301 318 312 295 315 313 290 293 294 280 284 292 283 284 294 348 330 324 325 314 330 347 326 306 286 271 269 253 237 220 213 223 229 232 234 228 226 225 227 235 243 246 242 234 230 238 242 236 232 223 188 182 198 224 242 248 249 248 245 242 243 246 248 240 212 204
340 14 42 35 46 62 68 55 47 73 95 92 85 53 26 61 71 41 355 13 29 354 318 316 308 292 297 303 296 292 283 276 286 293 294 297 300 321 344 300 298 301 318 321 300 282 267 265 265 261 258 261 276 299 316 319 292 243 223 219 218 221 232 239 237 232 230 236 236 233 244 250 224 179 180 212 239 240 242 247 243 239 242 240 233 222 210 211
1 18 17 24 58 65 68 59 51 60 61 31 40 42 23 11 37 63 1 352 8 334 301 298 316 305 309 314 303 295 297 293 287 287 296 302 305 311 299 285 286 287 291 287 274 267 268 259 255 259 264 270 281 291 297 299 291 277 263 243 223 212 220 226 229 231 235 245 235 225 235 247 245 236 223 254 296 267 266 290 307 303 287 282 261 235 232 224
33 54 30 4 358 47 54 52 50 61 66 51 51 37 22 18 12 14 16 326 310 309 297 257 281 315 327 323 303 295 304 296 285 292 305 308 308 308 300 292 286 269 256 261 258 261 271 265 261 264 269 274 279 282 283 279 273 275 276 268 251 230 222 224 228 230 231 241 244 243 256 252 245 255 279 333 342 325 327 334 328 322 320 323 322 297 275 249
53 69 48 29 41 57 58 54 52 60 53 37 50 44 21 22 21 356 317 290 270 297 312 287 291 319 315 303 290 289 300 296 291 302 308 304 302 303 301 292 281 265 266 266 260 262 265 266 270 272 275 280 280 276 272 268 266 267 266 263 259 249 236 229 231 233 235 243 250 266 292 281 257 274 312 326 324 320 323 324 318 317 325 329 322 306 295 287
60 69 55 55 79 76 67 60 52 61 55 28 32 50 29 15 18 357 313 295 279 266 310 301 308 315 303 290 276 274 287 293 287 288 294 295 293 293 298 294 282 282 284 277 264 260 258 268 283 287 284 281 280 276 266 257 257 261 262 260 256 248 239 233 231 229 233 238 239 245 265 268 263 305 332 317 308 309 311 314 320 330 338 334 324 314 310 309
64 69 52 37 70 64 51 59 43 26 55 41 32 40 25 23 18 342 309 305 291 291 318 314 314 311 295 279 272 280 295 290 279 279 280 279 280 281 280 278 280 283 281 275 267 254 253 270 282 284 279 274 274 270 260 253 252 253 254 252 247 242 236 231 227 228 233 231 224 225 235 246 269 322 334 312 299 294 291 304 321 332 338 335 326 321 319 317
59 67 57 15 64 49 25 55 32 344 42 43 36 28 5 16 19 340 332 78 259 285 315 309 306 306 294 286 293 305 306 294 284 282 279 274 273 272 267 263 264 267 267 270 270 257 252 265 274 273 271 272 271 264 258 253 249 245 244 242 238 236 236 229 218 214 233 230 223 224 229 265 324 333 329 320 313 300 293 306 321 328 332 329 322 319 317 316